Wetterstats.de || Aktuelle Messwerte || Aktuelle Wetterkarten NEU! || Radar / Satellit NEU! || Wetterarchiv || Langzeitwerte NEU! || Klim. Kenntage || Met. Ereignisse || Agrarwerte || Echtzeitwerte

Monatsübersicht für September 2020 Diagramm
 
Wetter Information zur Wetteranzeige
Zeitraffer
Tageslänge (hh:mm)
Höchsttemperatur in °C
Uhrzeit
Tiefsttemperatur in °C
Uhrzeit
Luftfeuchte (max., in %)
Uhrzeit
Luftfeuchte (min., in %)
Uhrzeit
Luftdruck (max., in hPa)
Uhrzeit
Luftdruck (min., in hPa)
Uhrzeit
Luftdruck (Ø, in hPa)
Regenrate (max, mm/h)
Uhrzeit
Niederschlag in mm
Verdunstung in mm
Solar in W/m² (Ø)
Solar in W/m² (max.)
UV-Index (max.)
Sonnenscheindauer (hh:mm)
Windrichtung (Ø)
Windstärke (Ø in km/h)
Windstärke (Ø in bft)
Windböe (max., in km/h)
Uhrzeit
Windböe (max., in bft)
Uhrzeit
Taupunkt (max., in °C)
Uhrzeit
Taupunkt (min., in °C)
Uhrzeit
Windchill (min., in °C)
Uhrzeit
Gewitterindex (max.)
Uhrzeit
Waldbrandindex (max.)
Uhrzeit
Graslandfeuerindex (max.)
Uhrzeit
Staubsturm-Index (max.)
Uhrzeit
01
Zeitraffer
13:40
19.9
15:25 Uhr
7.3
06:10 Uhr

97
07:20 Uhr
49
15:35 Uhr
1018.8
06:15 Uhr

1016.8
18:00 Uhr
1018.0
2,400
06:25 Uhr
0,200
2.413
286
896
13:35 Uhr
4.9
13:25 Uhr

06:05:00
3,3
1
24,1
13:20 Uhr

4
13.2
10:00 Uhr
6.7
06:10 Uhr
7.3
06:10 Uhr
4
00:00 Uhr
0.0
00:00 Uhr
3.0
15:05 Uhr
0.0
00:00 Uhr
02
Zeitraffer
13:35
18.3
13:50 Uhr
9.6
03:30 Uhr

95
03:50 Uhr
66
14:00 Uhr
1017.4
00:00 Uhr

1015.4
14:20 Uhr
1016.2
2,400
15:35 Uhr
2,200
1.676
198
863
14:00 Uhr
5.2
13:55 Uhr

03:08:00
3,5
1
27,4
14:30 Uhr

4
13.7
17:45 Uhr
8.7
03:30 Uhr
9.6
03:30 Uhr
6
20:30 Uhr
0.0
00:00 Uhr
2.8
14:20 Uhr
0.0
00:00 Uhr
03
Zeitraffer
13:32
21.9
16:10 Uhr
12.7
07:25 Uhr

96
02:50 Uhr
48
14:10 Uhr
1019.2
12:35 Uhr

1016.8
00:15 Uhr
1018.0
2,400
00:05 Uhr
3,200
3.454
386
848
14:25 Uhr
4.7
13:50 Uhr

09:04:00
6,0
1
25,7
13:00 Uhr

4
13.8
09:10 Uhr
9.8
13:55 Uhr
11.7
08:35 Uhr
7
23:00 Uhr
0.8
15:05 Uhr
3.2
16:55 Uhr
0.0
00:00 Uhr
04
Zeitraffer
13:28
22.6
16:55 Uhr
13.9
23:45 Uhr

96
05:45 Uhr
58
14:40 Uhr
1020.1
13:35 Uhr

1017.0
04:55 Uhr
1018.7
2,400
00:15 Uhr
1,800
2.413
291
833
13:40 Uhr
5.0
12:40 Uhr

06:11:00
5,3
1
24,1
12:30 Uhr

4
16.5
10:45 Uhr
13.0
23:45 Uhr
12.6
00:00 Uhr
9
04:50 Uhr
0.0
00:00 Uhr
2.1
16:00 Uhr
0.0
00:00 Uhr
05
Zeitraffer
13:23
16.1
08:00 Uhr
12.4
22:20 Uhr

97
06:20 Uhr
80
16:00 Uhr
1017.8
00:00 Uhr

1014.4
07:35 Uhr
1016.0
19,200
08:10 Uhr
7,600
0.940
116
416
13:25 Uhr
2.6
12:05 Uhr

00:21:00
3,7
1
27,4
14:10 Uhr

4
15.6
08:00 Uhr
11.4
22:10 Uhr
11.4
14:15 Uhr
8
05:40 Uhr
0.0
00:00 Uhr
1.5
00:00 Uhr
0.0
00:00 Uhr
06
Zeitraffer
13:20
19.0
17:00 Uhr
9.2
23:55 Uhr

96
05:20 Uhr
50
16:05 Uhr
1019.9
23:50 Uhr

1016.5
00:25 Uhr
1017.7
0,000
00:00 Uhr
0,000
2.743
322
860
12:55 Uhr
4.6
13:50 Uhr

07:13:00
4,8
1
32,2
10:40 Uhr

5
12.0
01:25 Uhr
8.1
16:05 Uhr
9.2
23:55 Uhr
4
00:00 Uhr
0.0
00:00 Uhr
0.0
00:00 Uhr
0.0
00:00 Uhr
07
Zeitraffer
13:16
18.5
14:40 Uhr
8.5
23:55 Uhr

95
00:15 Uhr
57
14:30 Uhr
1024.8
23:30 Uhr

1019.7
00:00 Uhr
1022.2
0,000
00:00 Uhr
0,000
2.337
286
898
12:50 Uhr
4.6
13:30 Uhr

05:30:00
3,5
1
27,4
14:25 Uhr

4
12.3
11:40 Uhr
7.6
23:55 Uhr
8.5
23:55 Uhr
2
02:05 Uhr
0.0
00:00 Uhr
1.9
15:10 Uhr
0.0
00:00 Uhr
08
Zeitraffer
13:11
20.4
15:20 Uhr
7.4
04:55 Uhr

96
03:35 Uhr
58
12:40 Uhr
1024.7
00:05 Uhr

1022.2
13:50 Uhr
1023.5
0,000
00:00 Uhr
0,000
1.778
170
540
12:25 Uhr
4.7
12:20 Uhr

01:38:00
4,6
1
33,8
12:40 Uhr

5
14.5
18:15 Uhr
6.8
03:25 Uhr
7.4
04:55 Uhr
8
20:15 Uhr
0.0
00:00 Uhr
2.1
13:00 Uhr
0.0
00:00 Uhr
09
Zeitraffer
13:08
22.9
13:25 Uhr
12.3
07:00 Uhr

97
03:40 Uhr
68
14:50 Uhr
1024.3
00:10 Uhr

1015.3
19:45 Uhr
1019.6
2,400
23:55 Uhr
0,200
1.880
202
868
11:45 Uhr
5.6
13:20 Uhr

02:02:00
4,3
1
40,2
23:55 Uhr

5
17.2
16:25 Uhr
11.7
07:00 Uhr
12.3
07:00 Uhr
11
21:30 Uhr
1.6
13:50 Uhr
3.0
15:10 Uhr
0.0
00:00 Uhr
10
Zeitraffer
13:03
18.9
16:35 Uhr
7.9
23:55 Uhr

95
06:55 Uhr
52
16:30 Uhr
1021.7
10:55 Uhr

1016.7
00:00 Uhr
1020.1
2,400
00:30 Uhr
0,400
2.591
318
880
12:45 Uhr
4.5
13:45 Uhr

07:28:00
5,5
1
33,8
12:25 Uhr

5
14.6
00:00 Uhr
7.0
23:55 Uhr
7.9
23:55 Uhr
8
00:00 Uhr
1.6
16:40 Uhr
3.1
17:05 Uhr
0.0
00:00 Uhr
11
Zeitraffer
12:59
22.1
16:30 Uhr
6.2
02:10 Uhr

95
00:45 Uhr
42
16:10 Uhr
1020.6
00:00 Uhr

1016.6
19:20 Uhr
1018.5
0,000
00:00 Uhr
0,000
2.997
373
770
12:55 Uhr
3.8
13:00 Uhr

09:22:00
1,9
0
22,5
13:55 Uhr

4
12.0
18:15 Uhr
5.3
02:10 Uhr
6.2
02:10 Uhr
3
18:15 Uhr
1.8
15:05 Uhr
3.3
15:45 Uhr
0.0
00:00 Uhr
12
Zeitraffer
12:56
25.4
16:40 Uhr
5.4
07:00 Uhr

95
03:25 Uhr
47
15:00 Uhr
1021.5
23:00 Uhr

1016.2
15:10 Uhr
1017.7
0,000
00:00 Uhr
0,000
3.632
370
649
12:40 Uhr
3.5
12:15 Uhr

10:31:00
5,0
1
35,4
14:00 Uhr

5
14.6
17:55 Uhr
4.7
07:00 Uhr
5.4
07:00 Uhr
6
17:55 Uhr
1.9
15:00 Uhr
3.5
15:25 Uhr
0.0
00:00 Uhr
13
Zeitraffer
12:51
23.6
17:05 Uhr
8.7
07:05 Uhr

96
07:25 Uhr
48
14:55 Uhr
1026.5
23:55 Uhr

1021.4
00:00 Uhr
1024.5
0,000
00:00 Uhr
0,000
3.073
348
676
13:10 Uhr
4.2
13:10 Uhr

10:50:00
3,7
1
27,4
15:00 Uhr

4
13.7
11:10 Uhr
7.9
07:05 Uhr
8.7
07:05 Uhr
7
20:10 Uhr
2.0
17:10 Uhr
3.5
17:05 Uhr
0.0
00:00 Uhr
14
Zeitraffer
12:47
29.7
15:50 Uhr
9.3
06:50 Uhr

95
01:25 Uhr
38
15:00 Uhr
1028.8
10:55 Uhr

1025.1
19:15 Uhr
1026.9
0,000
00:00 Uhr
0,000
3.277
372
661
13:10 Uhr
4.0
12:40 Uhr

10:21:00
1,3
0
19,3
14:45 Uhr

3
17.0
19:15 Uhr
8.5
06:55 Uhr
9.3
06:50 Uhr
10
20:00 Uhr
2.6
15:25 Uhr
4.4
17:05 Uhr
0.0
00:00 Uhr
15
Zeitraffer
12:44
31.4
15:40 Uhr
12.7
06:50 Uhr

95
04:35 Uhr
38
15:55 Uhr
1025.3
00:00 Uhr

1018.2
23:45 Uhr
1021.7
0,000
00:00 Uhr
0,000
3.607
352
652
13:15 Uhr
3.9
13:15 Uhr

10:16:00
3,0
1
30,6
14:00 Uhr

5
18.2
19:30 Uhr
11.8
06:50 Uhr
12.7
06:50 Uhr
12
19:55 Uhr
2.8
16:40 Uhr
4.7
16:05 Uhr
0.0
00:00 Uhr


 
Wetter Information zur Wetteranzeige
Zeitraffer
Tageslänge (hh:mm)
Höchsttemperatur in °C
Uhrzeit
Tiefsttemperatur in °C
Uhrzeit
Luftfeuchte (max., in %)
Uhrzeit
Luftfeuchte (min., in %)
Uhrzeit
Luftdruck (max., in hPa)
Uhrzeit
Luftdruck (min., in hPa)
Uhrzeit
Luftdruck (Ø, in hPa)
Regenrate (max, mm/h)
Uhrzeit
Niederschlag in mm
Verdunstung in mm
Solar in W/m² (Ø)
Solar in W/m² (max.)
UV-Index (max.)
Sonnenscheindauer (hh:mm)
Windrichtung (Ø)
Windstärke (Ø in km/h)
Windstärke (Ø in bft)
Windböe (max., in km/h)
Uhrzeit
Windböe (max., in bft)
Uhrzeit
Taupunkt (max., in °C)
Uhrzeit
Taupunkt (min., in °C)
Uhrzeit
Windchill (min., in °C)
Uhrzeit
Gewitterindex (max.)
Uhrzeit
Waldbrandindex (max.)
Uhrzeit
Graslandfeuerindex (max.)
Uhrzeit
Staubsturm-Index (max.)
Uhrzeit
16
Zeitraffer
12:39
29.2
14:15 Uhr
12.8
07:00 Uhr

96
06:45 Uhr
46
14:55 Uhr
1020.1
23:55 Uhr

1015.3
17:55 Uhr
1016.9
0,000
00:00 Uhr
0,000
2.921
302
711
14:05 Uhr
3.9
12:35 Uhr

07:20:00
3,4
1
29,0
21:40 Uhr

4
19.7
12:30 Uhr
12.1
06:55 Uhr
12.8
07:00 Uhr
11
11:25 Uhr
3.5
14:35 Uhr
5.9
11:05 Uhr
0.0
00:00 Uhr
17
Zeitraffer
12:35
18.0
00:00 Uhr
5.6
23:55 Uhr

92
23:50 Uhr
45
12:50 Uhr
1031.0
22:40 Uhr

1020.0
00:00 Uhr
1027.1
0,000
00:00 Uhr
0,000
3.658
385
668
12:50 Uhr
3.9
12:40 Uhr

10:13:00
7,4
2
29,0
08:55 Uhr

4
12.0
00:00 Uhr
4.3
23:45 Uhr
5.6
23:55 Uhr
4
00:00 Uhr
3.3
16:05 Uhr
5.9
11:00 Uhr
0.0
00:00 Uhr
18
Zeitraffer
12:31
21.1
15:55 Uhr
0.8
07:05 Uhr

94
06:00 Uhr
33
15:45 Uhr
1031.4
10:05 Uhr

1027.7
18:50 Uhr
1029.7
0,000
00:00 Uhr
0,000
2.718
371
690
13:05 Uhr
4.4
13:00 Uhr

10:54:00
1,1
0
12,9
13:55 Uhr

2
8.6
10:30 Uhr
-0.2
07:05 Uhr
0.8
07:05 Uhr
0
00:00 Uhr
3.7
15:10 Uhr
5.9
11:00 Uhr
0.0
00:00 Uhr
19
Zeitraffer
12:27
21.3
15:30 Uhr
2.1
06:55 Uhr

93
04:50 Uhr
35
15:35 Uhr
1027.7
00:05 Uhr

1021.6
19:00 Uhr
1024.4
0,000
00:00 Uhr
0,000
2.692
332
674
12:15 Uhr
3.8
12:15 Uhr

08:57:00
2,2
1
19,3
11:50 Uhr

3
9.3
19:00 Uhr
0.9
06:55 Uhr
2.1
06:55 Uhr
2
19:45 Uhr
3.8
15:35 Uhr
5.9
10:35 Uhr
0.0
00:00 Uhr
20
Zeitraffer
12:23
23.8
15:15 Uhr
4.5
07:05 Uhr

94
06:05 Uhr
32
15:10 Uhr
1022.1
00:05 Uhr

1019.1
18:10 Uhr
1020.6
0,000
00:00 Uhr
0,000
3.099
368
691
13:25 Uhr
3.8
13:00 Uhr

09:37:00
2,8
1
20,9
12:30 Uhr

4
9.5
13:00 Uhr
3.5
07:00 Uhr
4.5
07:05 Uhr
0
00:00 Uhr
3.9
15:40 Uhr
5.9
10:20 Uhr
0.0
00:00 Uhr
21
Zeitraffer
12:19
25.2
16:30 Uhr
4.1
06:35 Uhr

95
07:05 Uhr
40
14:50 Uhr
1019.9
00:25 Uhr

1015.5
23:55 Uhr
1018.2
0,000
00:00 Uhr
0,000
2.972
360
646
13:05 Uhr
3.7
12:40 Uhr

10:09:00
1,9
0
17,7
14:25 Uhr

3
11.7
19:00 Uhr
3.0
06:35 Uhr
4.1
06:35 Uhr
3
19:00 Uhr
3.8
16:05 Uhr
5.9
10:20 Uhr
0.0
00:00 Uhr
22
Zeitraffer
12:15
25.6
16:10 Uhr
7.2
07:05 Uhr

94
06:00 Uhr
44
17:20 Uhr
1015.5
00:00 Uhr

1007.4
23:50 Uhr
1011.3
0,000
00:00 Uhr
0,000
2.921
345
608
13:10 Uhr
3.3
12:50 Uhr

09:53:00
2,1
1
24,1
14:00 Uhr

4
14.6
18:40 Uhr
6.1
07:05 Uhr
7.2
07:05 Uhr
7
19:40 Uhr
4.4
17:00 Uhr
5.9
00:00 Uhr
0.0
00:00 Uhr
23
Zeitraffer
12:10
26.8
15:40 Uhr
10.2
07:05 Uhr

95
04:20 Uhr
39
16:00 Uhr
1007.3
00:00 Uhr

1004.1
18:45 Uhr
1005.2
0,000
00:00 Uhr
0,000
2.667
317
657
11:55 Uhr
3.3
12:15 Uhr

08:23:00
1,8
0
19,3
14:10 Uhr

3
15.6
11:55 Uhr
9.2
07:15 Uhr
10.2
07:05 Uhr
8
19:35 Uhr
4.4
16:05 Uhr
5.9
00:00 Uhr
0.0
00:00 Uhr
24
Zeitraffer
12:07
20.9
12:45 Uhr
10.1
23:50 Uhr

96
06:20 Uhr
48
14:55 Uhr
1005.2
15:55 Uhr

1002.6
06:20 Uhr
1003.9
0,000
00:00 Uhr
0,000
1.930
206
746
11:35 Uhr
3.3
12:40 Uhr

04:04:00
3,3
1
25,7
11:45 Uhr

4
14.4
11:00 Uhr
8.2
14:55 Uhr
10.1
23:50 Uhr
5
10:30 Uhr
4.1
17:20 Uhr
5.9
00:00 Uhr
0.0
00:00 Uhr
25
Zeitraffer
12:03
15.1
16:40 Uhr
7.6
23:45 Uhr

96
08:45 Uhr
86
17:10 Uhr
1003.4
00:00 Uhr

996.1
11:15 Uhr
997.8
9,600
06:00 Uhr
6,200
0.483
69
294
16:35 Uhr
1.3
15:35 Uhr

00:55:00
2,3
1
20,9
05:45 Uhr

4
13.7
15:35 Uhr
7.0
23:45 Uhr
7.4
05:45 Uhr
4
15:15 Uhr
2.6
00:00 Uhr
5.8
04:30 Uhr
0.0
00:00 Uhr
26
Zeitraffer
11:58
12.4
18:10 Uhr
6.7
01:50 Uhr

97
02:10 Uhr
90
10:25 Uhr
997.5
00:10 Uhr

987.0
17:45 Uhr
994.2
12,000
15:25 Uhr
27,200
0.254
39
151
09:50 Uhr
0.7
09:50 Uhr

00:00:00
6,4
1
35,4
16:10 Uhr

5
11.8
18:10 Uhr
6.1
01:50 Uhr
3.9
14:25 Uhr
3
19:30 Uhr
0.0
00:00 Uhr
1.4
10:20 Uhr
0.0
00:00 Uhr
27
Zeitraffer
11:55
10.8
14:55 Uhr
7.7
06:40 Uhr

97
21:30 Uhr
87
14:35 Uhr
1008.9
23:10 Uhr

997.6
00:00 Uhr
1003.7
2,400
08:40 Uhr
2,600
0.508
99
325
13:30 Uhr
1.8
13:30 Uhr

00:04:00
2,3
1
16,1
01:45 Uhr

3
9.7
18:10 Uhr
6.9
06:55 Uhr
6.6
01:45 Uhr
2
00:00 Uhr
0.0
00:00 Uhr
0.0
00:00 Uhr
0.0
00:00 Uhr
28
Zeitraffer
11:51
18.2
14:05 Uhr
9.1
07:25 Uhr

97
04:30 Uhr
54
14:35 Uhr
1014.8
23:50 Uhr

1008.8
00:00 Uhr
1011.7
2,400
01:15 Uhr
0,400
2.413
340
665
14:30 Uhr
3.0
12:40 Uhr

09:32:00
3,4
1
29,0
15:10 Uhr

4
10.7
11:05 Uhr
8.1
14:35 Uhr
9.1
07:25 Uhr
2
00:00 Uhr
0.0
00:00 Uhr
0.0
00:00 Uhr
0.0
00:00 Uhr
29
Zeitraffer
11:46
20.6
16:05 Uhr
10.4
02:35 Uhr

96
05:30 Uhr
56
15:35 Uhr
1017.6
21:40 Uhr

1014.4
03:50 Uhr
1016.0
0,000
00:00 Uhr
0,000
2.032
288
726
12:25 Uhr
3.1
12:25 Uhr

07:16:00
1,7
0
16,1
12:15 Uhr

3
12.5
16:05 Uhr
9.4
12:05 Uhr
10.4
02:35 Uhr
4
16:05 Uhr
0.0
00:00 Uhr
0.0
00:00 Uhr
0.0
00:00 Uhr
30
Zeitraffer
11:42
20.4
15:45 Uhr
6.2
06:45 Uhr

97
07:25 Uhr
63
16:35 Uhr
1017.5
08:50 Uhr

1014.1
23:30 Uhr
1016.1
0,000
00:00 Uhr
0,000
1.956
300
609
14:05 Uhr
3.0
12:35 Uhr

07:23:00
1,3
0
14,5
16:25 Uhr

3
13.9
11:10 Uhr
5.6
06:45 Uhr
6.2
06:45 Uhr
5
14:05 Uhr
0.1
15:50 Uhr
1.8
15:05 Uhr
0.0
00:00 Uhr
Stationsstandorte || Wetterblog || Wissenswertes || Downloads || Seitenhistorie || Partner || Impressum / Datenschutz